GW3496 Weather Reports


Display with metric or nautical units.
time (UTC)temp
F
wind
direction
speed
MPH
gust
MPH
rain 1hr
in
rain 24hr
in
rain mn
in
humidity
%
barometer
mb
20260504044532 52 142 0.0 0.0 0.00 0.00 0.00 65 1013.5
20260504043032 51 139 0.0 0.0 0.00 0.00 0.00 66 1013.4
20260504041542 51 126 0.0 0.0 0.00 0.00 0.00 67 1013.4
20260504040039 52 128 0.0 0.0 0.00 0.00 0.00 66 1013.5
20260504034541 52 117 0.0 0.0 0.00 0.00 0.00 64 1013.5
20260504033030 52 117 0.0 0.0 0.00 0.00 0.00 61 1013.4
20260504031535 53 117 0.0 0.0 0.00 0.00 0.00 60 1013.6
20260504030037 53 117 0.0 0.0 0.00 0.00 0.00 58 1013.3
20260504024531 54 117 0.0 0.0 0.00 0.00 0.00 56 1013.4
20260504023031 54 117 0.0 0.0 0.00 0.00 0.00 56 1013.5
20260504021532 55 117 0.0 0.0 0.00 0.00 0.00 54 1013.0
20260504020037 55 121 0.0 0.0 0.00 0.00 0.00 54 1013.0
20260504014535 57 95 0.0 0.0 0.00 0.00 0.00 48 1013.0
20260504013042 58 161 0.0 3.0 0.00 0.00 0.00 45 1013.0
20260504011536 58 174 1.0 5.0 0.00 0.00 0.00 43 1012.9
20260504010035 59 169 0.0 0.0 0.00 0.00 0.00 41 1012.6
20260504004533 60 140 0.0 3.0 0.00 0.00 0.00 39 1012.6
20260504003035 61 192 0.0 3.0 0.00 0.00 0.00 36 1012.4
20260504001535 62 225 0.0 0.0 0.00 0.00 0.00 33 1012.3
20260504000029 63 233 0.0 2.0 0.00 0.00 0.00 32 1012.5
20260503234532 63 242 2.0 4.0 0.00 0.00 0.00 30 1012.1
20260503233030 64 234 1.0 5.0 0.00 0.00 0.00 29 1012.1
20260503231536 64 257 0.0 4.0 0.00 0.00 0.00 29 1012.1
20260503230040 64 278 2.0 10.0 0.00 0.00 0.00 29 1012.1
20260503224530 64 238 3.0 10.0 0.00 0.00 0.00 29 1012.1
20260503223036 64 272 4.0 14.0 0.00 0.00 0.00 29 1012.4
20260503221532 65 271 9.0 13.0 0.00 0.00 0.00 28 1012.1
20260503220042 64 309 4.0 12.0 0.00 0.00 0.00 30 1012.3
20260503214539 64 219 4.0 11.0 0.00 0.00 0.00 29 1012.5
20260503213044 63 318 5.0 10.0 0.00 0.00 0.00 30 1012.5
20260503211532 63 262 5.0 14.0 0.00 0.00 0.00 31 1012.6
20260503210035 63 255 9.0 12.0 0.00 0.00 0.00 30 1012.5
20260503204539 62 269 6.0 11.0 0.00 0.00 0.00 30 1012.4
20260503203041 62 256 9.0 16.0 0.00 0.00 0.00 31 1012.5
20260503201534 62 240 7.0 16.0 0.00 0.00 0.00 30 1012.8
20260503200036 61 247 2.0 14.0 0.00 0.00 0.00 30 1012.9
20260503194534 62 259 8.0 23.0 0.00 0.00 0.00 31 1013.3
20260503193043 61 257 9.0 18.0 0.00 0.00 0.00 30 1013.6
20260503191603 60 252 6.0 15.0 0.00 0.00 0.00 32 1013.8
20260503190039 61 245 3.0 11.0 0.00 0.00 0.00 34 1013.7
20260503184538 60 288 10.0 15.0 0.00 0.00 0.00 33 1014.0
20260503183035 60 9 3.0 14.0 0.00 0.00 0.00 31 1014.2
20260503181545 59 9 9.0 16.0 0.00 0.00 0.00 33 1014.4
20260503180043 59 240 8.0 14.0 0.00 0.00 0.00 33 1014.6
20260503174544 58 272 6.0 19.0 0.00 0.00 0.00 33 1014.5
20260503173035 58 259 7.0 16.0 0.00 0.00 0.00 33 1014.6
20260503171533 58 315 10.0 20.0 0.00 0.00 0.00 34 1014.6
20260503081547 45 302 1.0 5.0 0.00 0.00 0.00 61 1012.8
20260503071544 47 360 5.0 15.0 0.00 0.00 0.00 56 1012.7
20260503054543 49 340 2.0 9.0 0.00 0.00 0.00 55 1012.0
20260503053031 50 342 3.0 11.0 0.00 0.00 0.00 54 1012.1
20260503051529 50 12 8.0 13.0 0.00 0.00 0.00 53 1012.0
20260503050034 50 350 5.0 13.0 0.00 0.00 0.00 52 1011.6